Location: The Saddle
(36.8333°N, 80.3417°W)
Time: 07:39:56
(UTC-04:00)

A-11 Canister half - Pass Details

Date: 03 June 2024
Orbit: 1515 x 1685 km, 47.2° (Epoch: 17 June)

Event Time Altitude Azimuth Distance (km) Brightness Sun altitude
Rises 02:31:56 0° 275° (W) 4,822 11.5 -28.4°
Reaches altitude 10° 02:35:19 10° 281° (WNW) 3,812 11.0 -28.2°
Maximum altitude 02:44:29 46° 353° (N) 2,008 9.9 -27.5°
Drops below altitude 10° 02:53:23 10° 65° (ENE) 3,700 11.6 -26.8°
Sets 02:56:36 0° 72° (ENE) 4,670 12.1 -26.5°
